Fort Lewis, WA

4:29 AM PDT on May 23, 2017 (GMT -0700)
Gray Army Air Field

Weather History for KGRF - May, 2014

Change the Weather History Date:

Tuesday, May 13, 2014

  Actual Average Record
Temperature  
Mean Temperature 62 °F -  
Max Temperature 80 °F 62 °F 83 °F (2016)
Min Temperature 45 °F 42 °F 35 °F (2006)
Degree Days  
Heating Degree Days 3    
Growing Degree Days 12 (Base 50)    
Moisture  
Dew Point 41 °F    
Average Humidity 45    
Maximum Humidity 90    
Minimum Humidity 19    
Precipitation  
Precipitation 0.00 in - - ()
Sea Level Pressure  
Sea Level Pressure 30.33 in    
Wind  
Wind Speed 4 mph (North)    
Max Wind Speed 9 mph    
Max Gust Speed -    
Visibility 10 miles    
Events      
Averages and records for this station are not official NWS values.
T = Trace of Precipitation, MM = Missing Value Source: NWS Daily Summary

Daily Weather History Graph

Daily Weather History Graph

Search for Another Location

Airport or City:

Trip Planner

Search our weather history database for the weather conditions in past years. The results will help you decide how hot, cold, wet, or windy it might be!

Date:

Astronomy

May. 13, 2014 Rise Set
Actual Time 5:37 AM PDT 8:37 PM PDT
Civil Twilight 5:01 AM PDT 9:13 PM PDT
Nautical Twilight 4:15 AM PDT 9:59 PM PDT
Astronomical Twilight 3:19 AM PDT 10:55 PM PDT
Moon 7:40 PM PDT (5/13) 5:03 AM PDT (5/13)
Length of Visible Light 16h 11m
Length of Day
14h 59m
Waxing Gibbous, 99% of the Moon is Illuminated
May 13
Waxing Gibbous
May 14
Full
May 21
Last Quarter
May 28
New
Jun 5
First Quarter

Hourly Weather History & Observations

Time (PDT) Temp. Windchill Dew Point Humidity Pressure Visibility Wind Dir Wind Speed Gust Speed Precip Events Conditions
12:58 AM 55.2 °F - 40.8 °F 58% 30.32 in 10.0 mi ENE 1.2 mph - N/A   Clear
1:58 AM 53.8 °F - 42.3 °F 65% 30.32 in 10.0 mi ENE 3.5 mph - N/A   Clear
2:58 AM 51.4 °F - 43.9 °F 75% 30.33 in 10.0 mi South 2.3 mph - N/A   Clear
3:58 AM 52.2 °F - 43.9 °F 73% 30.34 in 10.0 mi East 1.2 mph - N/A   Clear
4:58 AM 47.7 °F - 43.9 °F 87% 30.34 in 10.0 mi SE 6.9 mph - N/A   Partly Cloudy
5:58 AM 45.9 °F 43.6 °F 43.2 °F 90% 30.34 in 10.0 mi SE 4.6 mph - N/A   Mostly Cloudy
8:58 AM 61.9 °F - 46.4 °F 57% 30.37 in 10.0 mi NNW 3.5 mph - N/A   Partly Cloudy
9:58 AM 65.7 °F - 45.0 °F 47% 30.38 in 10.0 mi North 3.5 mph - N/A   Clear
10:58 AM 68.5 °F - 44.4 °F 42% 30.38 in 10.0 mi WNW 6.9 mph - N/A   Clear
11:58 AM 70.9 °F - 40.1 °F 33% 30.37 in 10.0 mi North 9.2 mph - N/A   Clear
12:58 PM 73.9 °F - 42.1 °F 32% 30.36 in 10.0 mi North 4.6 mph - N/A   Clear
1:58 PM 76.1 °F - 40.1 °F 27% 30.35 in 10.0 mi Variable 4.6 mph - N/A   Clear
2:58 PM 77.9 °F - 41.7 °F 27% 30.34 in 10.0 mi NNW 8.1 mph - N/A   Clear
3:58 PM 79.7 °F - 42.1 °F 26% 30.32 in 10.0 mi WNW 5.8 mph - N/A   Clear
4:58 PM 79.5 °F - 38.5 °F 23% 30.31 in 10.0 mi North 9.2 mph - N/A   Clear
5:58 PM 79.3 °F - 32.9 °F 19% 30.30 in 10.0 mi NNW 9.2 mph - N/A   Clear
6:58 PM 78.3 °F - 33.3 °F 20% 30.29 in 10.0 mi North 8.1 mph - N/A   Clear
7:58 PM 75.6 °F - 34.3 °F 22% 30.29 in 10.0 mi North 8.1 mph - N/A   Clear
8:58 PM 71.8 °F - 40.3 °F 32% 30.31 in 10.0 mi North 6.9 mph - N/A   Clear
9:58 PM 69.4 °F - 41.0 °F 36% 30.32 in 10.0 mi North 8.1 mph - N/A   Clear
10:58 PM 67.1 °F - 43.3 °F 42% 30.32 in 10.0 mi ENE 3.5 mph - N/A   Clear
11:58 PM 63.3 °F - 44.2 °F 50% 30.33 in 10.0 mi Variable 2.3 mph - N/A   Clear